This demonstration page uses our WeatherBlox Daily Observations layout. Learn more.

Left ArrowRight Arrow

Hourly Observations for October 2, 2020

Temp ( °F °C ) Dew Point ( °F °C ) Humidity (%) Winds ( mph kmh ) Pressure ( in mb ) Visibility ( mi km ) Precip ( " mm )
12:53 am 00:53 Clear 35 1.7 28 -2.2 76 76 ESE 3 6 30.32 1027 10 16 0.00 0.00
1:53 am 01:53 Clear 39 3.9 30 -1.1 70 70 E 3 6 30.30 1026 10 16 0.00 0.00
2:53 am 02:53 Clear 42 5.6 31 -0.6 65 65 SE 3 6 30.30 1026 10 16 0.00 0.00
3:53 am 03:53 Clear 41 5 31 -0.6 67 67 S 3 6 30.29 1026 10 16 0.00 0.00
4:53 am 04:53 Clear 40 4.4 31 -0.6 70 70 S 3 6 30.28 1025 10 16 0.00 0.00
5:53 am 05:53 Clear 40 4.4 31 -0.6 70 70 S 3 6 30.27 1025 10 16 0.00 0.00
6:53 am 06:53 Clear 39 3.9 31 -0.6 73 73 SSE 3 6 30.28 1025 10 16 0.00 0.00
7:53 am 07:53 Sunny 41 5 31 -0.6 67 67 S 5 7 30.28 1025 10 16 0.00 0.00
8:53 am 08:53 Sunny 44 6.7 32 0 63 63 SSE 8 13 30.27 1025 10 16 0.00 0.00
9:53 am 09:53 Sunny 50 10 33 0.6 52 52 SSE 10 17 30.24 1024 10 16 0.00 0.00
10:53 am 10:53 Sunny 54 12.2 34 1.1 47 47 SSE 12 19 30.21 1023 10 16 0.00 0.00
11:53 am 11:53 Sunny 60 15.6 33 0.6 36 36 S 12 19 30.19 1022 10 16 0.00 0.00
12:53 pm 12:53 Sunny 63 17.2 32 0 31 31 S 10 17 30.15 1021 10 16 0.00 0.00
1:53 pm 13:53 Sunny 64 17.8 32 0 30 30 SSE 12 19 30.11 1020 10 16 0.00 0.00
2:53 pm 14:53 Sunny 66 18.9 32 0 28 28 S 8 13 30.06 1018 10 16 0.00 0.00
3:53 pm 15:53 Sunny 68 20 32 0 26 26 S 12 19 30.02 1017 10 16 0.00 0.00
4:53 pm 16:53 Sunny 70 21.1 34 1.1 27 27 S 12 19 29.99 1016 10 16 0.00 0.00
5:53 pm 17:53 Sunny 70 21.1 34 1.1 27 27 S 10 17 29.98 1015 10 16 0.00 0.00
6:53 pm 18:53 Sunny 67 19.4 34 1.1 30 30 SSE 12 19 29.96 1015 10 16 0.00 0.00
7:53 pm 19:53 Clear 64 17.8 35 1.7 34 34 SE 9 15 29.98 1015 10 16 0.00 0.00
8:53 pm 20:53 Cloudy 63 17.2 34 1.1 34 34 SSE 8 13 29.98 1015 10 16 0.00 0.00
9:53 pm 21:53 Mostly Cloudy 61 16.1 35 1.7 38 38 SSE 13 20 29.96 1015 10 16 0.00 0.00
10:53 pm 22:53 Mostly Cloudy 54 12.2 40 4.4 59 59 NNE 20 31 30.06 1018 10 16 0.00 0.00
11:53 pm 23:53 Clear 51 10.6 39 3.9 64 64 ENE 13 20 30.00 1016 10 16 0.00 0.00

Powered by AerisWeather